Terug naar catalogus

SCOUT B DEB

LostUNKNOWN
NORAD 28802·DEBRIS·🇺🇸 United States

Gelanceerd Aug 10, 1965 vanaf Wallops Flight Facility

Loading…

Volgende Passages (komende 24 uur)

TLE

VerouderdSource: Space-Track

Epoch: Aug 3, 2017, 06:21 UTC

1 28802U 65063M   17215.26512654 -.00000018  00000-0  10000-3 0  9991
2 28802  69.2332  76.8384 0689343  21.5266 341.3755 11.94550498553386

Volg SCOUT B DEB in realtime met AllMySat

Download on the App Store